ORBCOMM-X 1 21576U 91050C 26072.62386968 .00000361 00000+0 11932-3 0 9999 2 21576 98.3059 138.2713 0004862 93.3480 266.8267 14.43520371820983 ORBCOMM FM01 1 23545U 95017A 26072.28058015 .00005775 00000+0 53924-3 0 9996 2 23545 69.9608 120.8996 0007470 272.0187 88.0114 14.94675188652658 ORBCOMM FM02 1 23546U 95017B 26072.57767400 .00008749 00000+0 76914-3 0 9992 2 23546 69.9626 138.1343 0008693 272.7262 87.2901 14.96809647652382 ORBCOMM FM08 1 25112U 97084A 26072.56046341 .00001768 00000+0 52082-3 0 9996 2 25112 45.0122 153.6095 0007329 192.8662 167.2004 14.46997950480377 ORBCOMM FM10 1 25113U 97084B 26072.58616501 .00001547 00000+0 46333-3 0 9997 2 25113 45.0144 156.3938 0004774 166.4178 193.6803 14.46721250655516 ORBCOMM FM11 1 25114U 97084C 26072.63846259 .00001692 00000+0 50571-3 0 9999 2 25114 45.0120 157.2771 0005583 164.9532 195.1487 14.46457738480475 ORBCOMM FM12 1 25115U 97084D 26072.59684218 .00001625 00000+0 48699-3 0 9994 2 25115 45.0127 157.1957 0004703 167.2118 192.8853 14.46485417480260 ORBCOMM FM09 1 25116U 97084E 26072.58752879 .00001623 00000+0 48842-3 0 9991 2 25116 45.0138 158.4898 0005388 148.0023 212.1156 14.46307835480464 ORBCOMM FM05 1 25117U 97084F 26072.57455322 .00001682 00000+0 49636-3 0 9991 2 25117 45.0131 153.5050 0002820 192.8860 167.1920 14.47106118479613 ORBCOMM FM06 1 25118U 97084G 26072.63595756 .00001872 00000+0 54593-3 0 9994 2 25118 45.0122 152.6073 0002272 214.3617 298.2384 14.47287867480545 ORBCOMM FM07 1 25119U 97084H 26072.34239137 .00001541 00000+0 45636-3 0 9992 2 25119 45.0117 154.7600 0003175 177.1819 182.9051 14.47289208480497 ORBCOMM FM03 1 25158U 98007B 26072.64728204 .00001082 00000+0 41886-3 0 9995 2 25158 107.9626 329.4455 0042863 138.3007 222.1413 14.35312847462691 ORBCOMM FM04 1 25159U 98007C 26072.30733987 .00000929 00000+0 36507-3 0 9996 2 25159 107.9611 332.1468 0038667 136.1241 224.2981 14.35537264462835 ORBCOMM FM17 1 25413U 98046A 26072.33067501 .00000984 00000+0 38590-3 0 9992 2 25413 44.9941 66.7452 0000713 174.8428 185.2427 14.35752321441846 ORBCOMM FM18 1 25414U 98046B 26072.09998092 .00001265 00000+0 44763-3 0 9996 2 25414 44.9942 337.8217 0003428 206.7228 153.3444 14.39455524442988 ORBCOMM FM19 1 25415U 98046C 26072.10804744 .00001389 00000+0 48896-3 0 9997 2 25415 44.9958 340.1878 0002152 203.1818 296.4569 14.39283161442933 ORBCOMM FM20 1 25416U 98046D 26072.13878434 .00000978 00000+0 36759-3 0 9996 2 25416 44.9958 346.9233 0001068 305.8259 54.2489 14.37904603442960 ORBCOMM FM16 1 25417U 98046E 26072.28069817 .00001297 00000+0 45424-3 0 9994 2 25417 44.9949 334.0491 0003507 227.5230 132.5322 14.39846101443028 ORBCOMM FM15 1 25418U 98046F 26072.39501259 .00000511 00000+0 20796-3 0 9991 2 25418 44.9982 339.4819 0003205 231.6125 128.4436 14.39468594443029 ORBCOMM FM14 1 25419U 98046G 26071.71370687 .00001381 00000+0 48011-3 0 9992 2 25419 44.9970 340.1057 0001977 230.2436 129.8239 14.39906501442901 ORBCOMM FM13 1 25420U 98046H 26072.14745620 .00001134 00000+0 41430-3 0 9999 2 25420 44.9990 348.8291 0003808 201.2480 158.8211 14.38457347441956 ORBCOMM FM21 1 25475U 98053A 26072.43289265 .00000936 00000+0 35303-3 0 9998 2 25475 45.0077 73.7913 0001397 246.1669 113.9033 14.38023269435990 ORBCOMM FM22 1 25476U 98053B 26072.32722707 .00001234 00000+0 43977-3 0 9998 2 25476 45.0073 66.7828 0001570 183.5682 176.5156 14.39252630436030 ORBCOMM FM23 1 25477U 98053C 26072.39216703 .00001119 00000+0 41083-3 0 9998 2 25477 45.0077 75.6487 0001164 204.6357 155.4436 14.38285969436147 ORBCOMM FM24 1 25478U 98053D 26072.42538671 .00001267 00000+0 45319-3 0 9994 2 25478 45.0074 71.7115 0001360 220.2055 139.8693 14.38937009436215 ORBCOMM FM25 1 25479U 98053E 26072.40251170 .00001260 00000+0 45106-3 0 9996 2 25479 45.0068 70.1353 0003386 186.9614 173.1188 14.38897379436502 ORBCOMM FM26 1 25480U 98053F 26072.04565407 .00000998 00000+0 37485-3 0 9997 2 25480 45.0065 70.3477 0005644 192.3424 167.7286 14.37828149436336 ORBCOMM FM27 1 25481U 98053G 26072.17538971 .00001267 00000+0 45293-3 0 9994 2 25481 45.0051 71.3077 0001908 271.0543 89.0087 14.38941239436405 ORBCOMM FM28 1 25482U 98053H 26072.25529497 .00001153 00000+0 41560-3 0 9994 2 25482 45.0072 8.1300 0004038 233.1605 126.8873 14.39036561437106 ORBCOMM FM30 1 25980U 99065A 26072.56090631 .00001057 00000+0 39277-3 0 9993 2 25980 45.0307 254.0102 0005964 275.3084 84.7084 14.37990455373216 ORBCOMM FM31 1 25981U 99065B 26072.47779101 .00000969 00000+0 36471-3 0 9994 2 25981 45.0218 247.8446 0003319 299.9457 60.1062 14.37912041372754 ORBCOMM FM32 1 25982U 99065C 26072.49289935 .00000958 00000+0 36792-3 0 9992 2 25982 45.0148 266.1454 0005557 299.5898 60.4396 14.36974944373327 ORBCOMM FM33 1 25983U 99065D 26072.55409152 .00001026 00000+0 36171-3 0 9993 2 25983 45.0278 157.5298 0008017 325.0321 35.0001 14.40797908374905 ORBCOMM FM36 1 25984U 99065E 26072.51669248 .00001289 00000+0 45980-3 0 9993 2 25984 45.0382 253.6957 0003208 203.8155 156.2546 14.38993405373206 ORBCOMM FM35 1 25985U 99065F 26072.55813161 .00001146 00000+0 42312-3 0 9991 2 25985 45.0389 260.7562 0003099 303.6049 56.4504 14.37883030373547 ORBCOMM FM34 1 25986U 99065G 26072.52918440 .00001015 00000+0 38079-3 0 9995 2 25986 45.0381 261.4065 0003533 248.4533 111.5939 14.37794220373652 ORBCOMM FM38 1 33060U 08031A 26072.56614848 .00002018 00000+0 27370-3 0 9995 2 33060 48.4384 110.1454 0003912 127.3252 232.8021 14.82752324954709 ORBCOMM FM41 1 33061U 08031B 26072.54275766 .00001942 00000+0 26726-3 0 9995 2 33061 48.4418 119.0103 0003063 108.3153 44.0962 14.82285219954175 ORBCOMM FM29 1 33062U 08031C 26072.57018015 .00001982 00000+0 27110-3 0 9993 2 33062 48.4371 126.2974 0004671 107.3571 45.4614 14.82462630954093 ORBCOMM FM39 1 33063U 08031D 26072.58049297 .00001744 00000+0 25100-3 0 9994 2 33063 48.4386 153.6383 0005681 73.1990 286.9549 14.80840150953706 ORBCOMM FM37 1 33064U 08031E 26072.60252978 .00001722 00000+0 24716-3 0 9998 2 33064 48.4379 141.6386 0004234 95.5795 18.0328 14.81030607953969 ORBCOMM FM40 1 33065U 08031F 26072.61560231 .00002309 00000+0 30269-3 0 9996 2 33065 48.4397 120.7467 0005175 114.6031 20.4518 14.83678648954143 VESSELSAT 1 1 37840U 11058C 26071.82777891 .00000391 00000+0 68412-4 0 9999 2 37840 19.9617 268.2595 0013563 261.7623 98.1243 14.11421386744305 ORBCOMM FM109 1 40086U 14040A 26072.34916692 .00000671 00000+0 17852-3 0 9993 2 40086 47.0026 184.5626 0001555 173.7918 186.2987 14.58730254620359 ORBCOMM FM107 1 40087U 14040B 26072.50055599 .00000717 00000+0 18800-3 0 9997 2 40087 47.0045 184.6959 0000116 95.5371 264.5528 14.58815364620455 ORBCOMM FM106 1 40088U 14040C 26072.07055810 .00001178 00000+0 22383-3 0 9999 2 40088 47.0618 347.0070 0016808 238.6534 121.2712 14.70314130623037 ORBCOMM FM111 1 40089U 14040D 26072.59751181 .00002670 00000+0 30684-3 0 9992 2 40089 46.9995 157.0776 0027770 42.6257 317.6790 14.88370220630330 ORBCOMM FM104 1 40090U 14040E 26072.44473134 .00000686 00000+0 18795-3 0 9991 2 40090 47.0042 221.8421 0015955 353.5304 6.5373 14.57173459619882 ORBCOMM FM103 1 40091U 14040F 26072.35159853 .00000782 00000+0 20212-3 0 9995 2 40091 47.0046 186.1240 0000781 77.7672 282.3301 14.58718406603395 ORBCOMM FM114 1 41179U 15081A 26072.43555669 .00000657 00000+0 17559-3 0 9994 2 41179 47.0038 94.6656 0001431 141.9781 218.1206 14.58736571543775 ORBCOMM FM119 1 41180U 15081B 26072.22950800 .00000765 00000+0 19877-3 0 9994 2 41180 47.0021 5.0003 0001227 237.3057 122.7710 14.58680757544999 ORBCOMM FM105 1 41181U 15081C 26072.26688924 .00000316 00000+0 13318-3 0 9990 2 41181 47.0024 36.1583 0000904 70.6964 289.4014 14.45497247539670 ORBCOMM FM110 1 41182U 15081D 26072.42475392 .00000773 00000+0 20027-3 0 9994 2 41182 47.0011 94.1879 0003252 333.6257 26.4462 14.58742450543646 ORBCOMM FM118 1 41183U 15081E 26072.25387472 .00000823 00000+0 21086-3 0 9999 2 41183 47.0032 95.3117 0003856 301.3823 58.6685 14.58739152543727 ORBCOMM FM112 1 41184U 15081F 26072.18834580 .00000990 00000+0 24618-3 0 9998 2 41184 47.0008 4.1206 0001083 125.5362 234.5624 14.58740341544936 ORBCOMM FM113 1 41185U 15081G 26072.16555875 .00000885 00000+0 22390-3 0 9992 2 41185 47.0025 4.5967 0000797 145.7237 214.3701 14.58739616544913 ORBCOMM FM115 1 41186U 15081H 26072.36666726 .00000976 00000+0 22196-3 0 9998 2 41186 46.9977 198.7362 0001646 237.0073 123.0656 14.63130207547184 ORBCOMM FM108 1 41187U 15081J 26072.60758323 .00000795 00000+0 20482-3 0 9996 2 41187 47.0043 274.0489 0002275 122.5185 237.5921 14.58750971546129 ORBCOMM FM117 1 41188U 15081K 26072.57315908 .00000787 00000+0 20313-3 0 9995 2 41188 47.0007 272.8777 0002713 129.9948 230.1176 14.58742423546169 ORBCOMM FM116 1 41189U 15081L 26072.21152768 .00001071 00000+0 26341-3 0 9994 2 41189 47.0040 4.3709 0002270 327.4297 32.6448 14.58737492544929